TimeEST,TemperatureF,Dew PointF,Humidity,Sea Level PressureIn,VisibilityMPH,Wind Direction,Wind SpeedMPH,Gust SpeedMPH,PrecipitationIn,Events,Conditions,WindDirDegrees,DateUTC
12:15 AM,42.8,41.0,93,29.60,10.0,WNW,8.1,-,N/A,,Overcast,290,2014-01-15 05:15:00
12:35 AM,42.8,41.0,93,29.63,5.0,West,10.4,-,N/A,,Overcast,280,2014-01-15 05:35:00
12:55 AM,41.0,39.2,93,29.66,8.0,WNW,10.4,-,0.01,,Overcast,290,2014-01-15 05:55:00
1:15 AM,41.0,39.2,93,29.69,10.0,WNW,11.5,19.6,N/A,,Overcast,290,2014-01-15 06:15:00
1:35 AM,41.0,39.2,93,29.71,10.0,WNW,11.5,20.7,0.01,,Overcast,290,2014-01-15 06:35:00
1:55 AM,39.2,39.2,100,29.73,10.0,WNW,9.2,16.1,0.01,,Overcast,290,2014-01-15 06:55:00
2:15 AM,39.2,39.2,100,29.74,10.0,WNW,5.8,-,N/A,,Overcast,290,2014-01-15 07:15:00
2:35 AM,39.2,37.4,93,29.75,10.0,Calm,Calm,-,N/A,,Mostly Cloudy,0,2014-01-15 07:35:00
2:55 AM,37.4,35.6,93,29.77,10.0,Calm,Calm,-,N/A,,Clear,0,2014-01-15 07:55:00
3:15 AM,37.4,37.4,100,29.77,10.0,NW,3.5,-,N/A,,Partly Cloudy,310,2014-01-15 08:15:00
3:35 AM,37.4,33.8,87,29.77,10.0,WNW,4.6,-,N/A,,Clear,300,2014-01-15 08:35:00
3:55 AM,37.4,37.4,100,29.78,10.0,WNW,5.8,-,N/A,,Clear,290,2014-01-15 08:55:00
4:15 AM,35.6,33.8,93,29.81,10.0,West,5.8,-,N/A,,Clear,260,2014-01-15 09:15:00
4:35 AM,35.6,35.6,100,29.83,10.0,WSW,3.5,-,N/A,,Clear,240,2014-01-15 09:35:00
4:55 AM,35.6,33.8,93,29.84,9.0,SSW,3.5,-,N/A,,Clear,210,2014-01-15 09:55:00
5:15 AM,35.6,35.6,100,29.85,10.0,West,4.6,-,N/A,,Clear,280,2014-01-15 10:15:00
5:35 AM,32.0,28.4,87,29.87,3.0,West,3.5,-,N/A,,Clear,270,2014-01-15 10:35:00
5:55 AM,30.2,30.2,100,29.88,2.5,West,4.6,-,N/A,,Clear,260,2014-01-15 10:55:00
6:15 AM,33.8,32.0,93,29.90,10.0,Calm,Calm,-,N/A,,Clear,0,2014-01-15 11:15:00
6:35 AM,33.8,32.0,93,29.91,9.0,West,3.5,-,N/A,,Clear,260,2014-01-15 11:35:00
6:55 AM,30.2,30.2,100,29.93,7.0,SW,3.5,-,N/A,,Clear,220,2014-01-15 11:55:00
7:15 AM,28.4,28.4,100,29.94,0.5,Calm,Calm,-,N/A,,Unknown,0,2014-01-15 12:15:00
7:35 AM,28.4,28.4,100,29.97,0.8,Calm,Calm,-,N/A,,Unknown,0,2014-01-15 12:35:00
7:55 AM,32.0,32.0,100,29.98,10.0,Calm,Calm,-,N/A,,Clear,0,2014-01-15 12:55:00
8:15 AM,33.8,32.0,93,29.99,10.0,West,3.5,-,N/A,,Clear,260,2014-01-15 13:15:00
8:35 AM,33.8,33.8,100,30.00,10.0,Calm,Calm,-,N/A,,Clear,0,2014-01-15 13:35:00
8:55 AM,35.6,35.6,100,30.01,10.0,Calm,Calm,-,N/A,,Clear,0,2014-01-15 13:55:00
9:15 AM,37.4,37.4,100,30.02,10.0,SSW,4.6,-,N/A,,Clear,200,2014-01-15 14:15:00
9:35 AM,39.2,37.4,93,30.03,10.0,SSW,5.8,-,N/A,,Clear,200,2014-01-15 14:35:00
9:55 AM,41.0,37.4,87,30.03,10.0,SSW,3.5,-,N/A,,Clear,200,2014-01-15 14:55:00
10:15 AM,41.0,37.4,87,30.03,10.0,SSW,4.6,-,N/A,,Clear,210,2014-01-15 15:15:00
10:35 AM,42.8,37.4,81,30.03,10.0,SSW,5.8,-,N/A,,Clear,210,2014-01-15 15:35:00
10:55 AM,42.8,37.4,81,30.01,10.0,SSW,4.6,-,N/A,,Clear,200,2014-01-15 15:55:00
11:15 AM,42.8,37.4,81,30.00,10.0,SSW,4.6,-,N/A,,Clear,210,2014-01-15 16:15:00
11:35 AM,44.6,35.6,71,29.99,10.0,South,5.8,-,N/A,,Clear,190,2014-01-15 16:35:00
11:55 AM,44.6,35.6,71,29.98,10.0,South,6.9,-,N/A,,Clear,180,2014-01-15 16:55:00
12:15 PM,44.6,35.6,71,29.98,10.0,South,6.9,-,N/A,,Clear,190,2014-01-15 17:15:00
12:35 PM,44.6,35.6,71,29.98,10.0,South,9.2,-,N/A,,Clear,170,2014-01-15 17:35:00
12:55 PM,44.6,35.6,71,29.98,10.0,South,9.2,-,N/A,,Clear,170,2014-01-15 17:55:00
1:15 PM,42.8,35.6,76,29.98,10.0,South,8.1,-,N/A,,Clear,180,2014-01-15 18:15:00
1:35 PM,42.8,37.4,81,29.99,10.0,South,6.9,-,N/A,,Clear,180,2014-01-15 18:35:00
1:55 PM,42.8,37.4,81,29.98,10.0,South,5.8,-,N/A,,Clear,170,2014-01-15 18:55:00
2:15 PM,42.8,37.4,81,29.99,10.0,South,8.1,-,N/A,,Clear,190,2014-01-15 19:15:00
2:35 PM,42.8,37.4,81,29.99,10.0,South,5.8,-,N/A,,Clear,190,2014-01-15 19:35:00
2:55 PM,42.8,37.4,81,29.98,10.0,South,5.8,-,N/A,,Clear,170,2014-01-15 19:55:00
3:15 PM,41.0,37.4,87,29.98,10.0,South,4.6,-,N/A,,Clear,180,2014-01-15 20:15:00
3:35 PM,39.2,37.4,93,29.99,10.0,Calm,Calm,-,N/A,,Scattered Clouds,0,2014-01-15 20:35:00
3:55 PM,39.2,37.4,93,29.98,10.0,Calm,Calm,-,N/A,,Overcast,0,2014-01-15 20:55:00
4:15 PM,37.4,35.6,93,29.98,10.0,ESE,4.6,-,N/A,,Scattered Clouds,120,2014-01-15 21:15:00
4:35 PM,37.4,35.6,93,29.98,10.0,Calm,Calm,-,N/A,,Mostly Cloudy,0,2014-01-15 21:35:00
4:55 PM,37.4,37.4,100,29.98,10.0,Calm,Calm,-,N/A,,Overcast,0,2014-01-15 21:55:00
5:15 PM,37.4,37.4,100,29.98,10.0,Calm,Calm,-,N/A,,Overcast,0,2014-01-15 22:15:00
5:35 PM,37.4,37.4,100,29.98,10.0,Calm,Calm,-,N/A,,Scattered Clouds,0,2014-01-15 22:35:00
5:55 PM,39.2,37.4,93,29.98,10.0,South,3.5,-,N/A,,Clear,180,2014-01-15 22:55:00
6:15 PM,37.4,37.4,100,29.98,10.0,Calm,Calm,-,N/A,,Clear,0,2014-01-15 23:15:00
6:35 PM,37.4,35.6,93,29.99,10.0,Calm,Calm,-,N/A,,Clear,0,2014-01-15 23:35:00
6:55 PM,35.6,33.8,93,29.98,7.0,Calm,Calm,-,N/A,,Clear,0,2014-01-15 23:55:00
7:15 PM,33.8,32.0,93,29.98,5.0,Calm,Calm,-,N/A,,Clear,0,2014-01-16 00:15:00
7:35 PM,33.8,32.0,93,29.98,4.0,Calm,Calm,-,N/A,,Clear,0,2014-01-16 00:35:00
7:55 PM,33.8,32.0,93,29.98,4.0,Calm,Calm,-,N/A,,Clear,0,2014-01-16 00:55:00
8:15 PM,33.8,32.0,93,29.97,3.0,Calm,Calm,-,N/A,,Clear,0,2014-01-16 01:15:00
8:35 PM,30.2,30.2,100,29.97,7.0,Calm,Calm,-,N/A,,Clear,0,2014-01-16 01:35:00
8:55 PM,32.0,32.0,100,29.97,2.5,Calm,Calm,-,N/A,,Clear,0,2014-01-16 01:55:00
9:15 PM,30.2,30.2,100,29.96,3.0,Calm,Calm,-,N/A,,Clear,0,2014-01-16 02:15:00
9:35 PM,30.2,30.2,100,29.95,5.0,Calm,Calm,-,N/A,,Clear,0,2014-01-16 02:35:00
9:55 PM,30.2,28.4,93,29.94,3.0,Calm,Calm,-,N/A,,Clear,0,2014-01-16 02:55:00
10:15 PM,30.2,30.2,100,29.94,0.8,Calm,Calm,-,N/A,,Unknown,0,2014-01-16 03:15:00
10:35 PM,30.2,30.2,100,29.92,1.2,Calm,Calm,-,N/A,,Clear,0,2014-01-16 03:35:00
10:55 PM,30.2,30.2,100,29.92,0.5,Calm,Calm,-,N/A,,Unknown,0,2014-01-16 03:55:00
11:15 PM,28.4,26.6,93,29.92,3.0,Calm,Calm,-,N/A,,Clear,0,2014-01-16 04:15:00
11:35 PM,28.4,26.6,93,29.91,3.0,Calm,Calm,-,N/A,,Clear,0,2014-01-16 04:35:00
11:55 PM,30.2,28.4,93,29.91,3.0,Calm,Calm,-,N/A,,Clear,0,2014-01-16 04:55:00